Location: Ferchesar
(52.6477°N, 12.4298°E)
Time: 07:02:54
(UTC+02:00)

Transit 4A - Pass Details

Date: 07 March 2021
Orbit: 869 x 976 km, 66.8° (Epoch: 12 April)

Event Time Altitude Azimuth Distance (km) Brightness Sun altitude
Rises 14:38:40 0° 303° (WNW) 3,630 11.1 25.4°
Reaches altitude 10° 14:41:52 10° 318° (NW) 2,666 10.3 25.1°
Maximum altitude 14:46:39 23° 9° (N) 1,891 9.2 24.6°
Drops below altitude 10° 14:51:19 10° 60° (ENE) 2,605 9.8 24.2°
Sets 14:54:24 0° 75° (ENE) 3,526 10.5 23.9°
